Location: Bratislava
(48.1500°N, 17.1170°E)
Time: 04:40:01
(UTC+02:00)

Tiangong 2 - Visible Passes

Search period start: 26 May 2018 00:00
Search period end: 05 June 2018 00:00
Orbit: 382 x 385 km, 42.8° (Epoch: 25 May)

Date Brightness Start Highest point End Pass type
(mag) Time Alt. Az. Time Alt. Az. Time Alt. Az.
26 May 2.1 21:13:03 10° SW 21:15:49 28° S 21:18:36 10° ESE visible
26 May 2.5 22:49:24 10° WSW 22:51:30 24° SSW 22:51:30 24° SSW visible
27 May 2.1 21:49:38 10° WSW 21:52:26 29° S 21:54:20 16° SE visible
28 May 2.5 22:26:32 10° WSW 22:29:01 21° SSW 22:29:18 21° S visible
29 May 2.3 21:26:39 10° WSW 21:29:22 26° S 21:32:02 10° SE visible
30 May 3.0 22:03:46 10° WSW 22:05:51 16° SSW 22:06:57 14° S visible
01 Jun 3.5 21:41:28 10° SW 21:42:38 12° SSW 21:43:47 10° S visible
